TimeFrame on Redefined Productions
Outwar Sigil TimeFrame

Sigil TimeFrame

98 Gods Updated: 2019-12-08 14:18:47
NameTime LeftWindow Opens
Straya, the Underworld Ruler1d 21:242019-12-06 20:50:00
Keeper of Nature1d 11:192019-12-07 06:55:00
Hackerphage, Protector of the Gateway1d 09:472019-12-07 08:27:00
Skybrine The Inescapable1d 08:112019-12-07 10:03:00
Quiver, The Renegade1d 07:112019-12-07 11:03:00
Numerocure, The Black Messenger of Evil0d 22:552019-12-07 19:19:00
Gregov, Knight of the Woods0d 19:072019-12-07 23:07:00
Beast of Cards0d 18:022019-12-08 00:12:00
Ganja the Stone Golem0d 16:262019-12-08 01:48:00
Tsort0d 16:142019-12-08 02:00:00
King Ashnar, Lord of the Unliving0d 15:392019-12-08 02:35:00
Zikkir the Dark Archer0d 14:302019-12-08 03:44:00
Q-SEC Commander0d 14:092019-12-08 04:05:00
Xynak, the Arcane Master0d 13:212019-12-08 04:53:00
Dlanod, the Crazed Chancellor0d 10:432019-12-08 07:31:00
Lacuste of the Swarm0d 06:562019-12-08 11:18:00
Jorun the Blazing Swordsman0d 06:522019-12-08 11:22:00
Vitkros, Hydra of the Deep0d 06:052019-12-08 12:09:00
Wanhiroeaz the Devourer0d 05:042019-12-08 13:10:00
Sylvanna TorLai0d 04:522019-12-08 13:22:00
Lord Varan0d 01:592019-12-08 16:15:00
Hyrak, Bringer of Nightmares0d 01:502019-12-08 16:24:00
Balerion, Dragon of Dread0d 00:032019-12-08 18:11:00
Great Lord Ganeshan0d 02:202019-12-08 20:35:00
Old World Drake0d 03:312019-12-08 21:46:00
Detox0d 03:452019-12-08 22:00:00
Garland, The Lord Keeper0d 04:092019-12-08 22:24:00
Baron Mu, Dark Rider of the Undead0d 04:172019-12-08 22:32:00
Freezebreed, The Frozen Manipulator0d 04:202019-12-08 22:35:00
Tylos, The Lord Master0d 04:382019-12-08 22:53:00
Dreg nor, Keeper of the Infernal Essence0d 04:492019-12-08 23:04:00
Kretok, Descendant of Nature0d 05:212019-12-08 23:36:00
Ancient Magus Tarkin0d 06:172019-12-09 00:32:00
Murderface0d 06:372019-12-09 00:52:00
Gnorb0d 07:022019-12-09 01:17:00
Karvaz, Lord of Alsayic0d 07:202019-12-09 01:35:00
Nessam0d 07:472019-12-09 02:02:00
Ebliss, Fallen Angel of Despair0d 07:582019-12-09 02:13:00
Melt Bane, The Forbidden Demon Dragon0d 09:282019-12-09 03:43:00
Rotborn, Eater of the Dead0d 10:032019-12-09 04:18:00
Brutalitar, Lord of the Underworld0d 10:472019-12-09 05:02:00
Zertan, The Collector0d 10:512019-12-09 05:06:00
Ag Nabak the Abomination0d 11:052019-12-09 05:20:00
Crane0d 11:372019-12-09 05:52:00
Synge, The Red Dragon0d 12:042019-12-09 06:19:00
Lord Narada0d 15:152019-12-09 09:30:00
Raiyar, the Shadow Master0d 18:332019-12-09 12:48:00
Lord Sibannac0d 18:352019-12-09 12:50:00
Sarcrina the Astral Priestess0d 21:142019-12-09 15:29:00
Pinosis0d 21:402019-12-09 15:55:00
Traxodon the Plaguebringer0d 21:592019-12-09 16:14:00
Shadow0d 22:032019-12-09 16:18:00
Anguish0d 23:492019-12-09 18:04:00
Terrance, Rebel of Rallis1d 00:192019-12-09 18:34:00
Volgan the Living Ironbark1d 00:292019-12-09 18:44:00
Rancid, Lord of Thugs1d 00:422019-12-09 18:57:00
Samatha Dark-Soul1d 05:402019-12-09 23:55:00
Bolkor, the Holy Master1d 06:282019-12-10 00:43:00
Sigil, Lich of Woe1d 07:002019-12-10 01:15:00
Bloodchill the Grizzly1d 07:312019-12-10 01:46:00
Anvilfist1d 09:212019-12-10 03:36:00
Crolvak, the Fire Master1d 10:052019-12-10 04:20:00
Smoot the Yeti1d 10:292019-12-10 04:44:00
Mistress of the Sword1d 10:492019-12-10 05:04:00
Lady Ariella1d 11:072019-12-10 05:22:00
Nar Zhul, Slayer of All1d 12:012019-12-10 06:16:00
The Emerald Assassin1d 12:432019-12-10 06:58:00
Jazzmin, Maiden of Vitality1d 14:422019-12-10 08:57:00
Threk, King of Lords1d 15:432019-12-10 09:58:00
Lord Suka1d 19:232019-12-10 13:38:00
Lady Chaos, Queen of the Abyss1d 23:452019-12-10 18:00:00
Windstrike The Vile2d 02:442019-12-10 20:59:00
Felroc, Overseer of Hellfire2d 03:092019-12-10 21:24:00
Emperor Neudeus, Controller of the Universe2d 05:502019-12-11 00:05:00
Lord Xordam2d 06:342019-12-11 00:49:00
Nayark the Mummified Sorcerer2d 07:262019-12-11 01:41:00
Gorganus of the Wood2d 08:362019-12-11 02:51:00
Howldroid, Tormentor of the Pit2d 09:442019-12-11 03:59:00
Skarthul the Avenged2d 10:132019-12-11 04:28:00
Akkel the Enflamed Warrior2d 10:212019-12-11 04:36:00
Ormsul the Putrid2d 14:282019-12-11 08:43:00
Animated Captain2d 15:272019-12-11 09:42:00
Archdevil Yirkon2d 17:352019-12-11 11:50:00
Esquin, the Kinetic Master2d 18:442019-12-11 12:59:00
Amalgamated Apparition2d 22:032019-12-11 16:18:00
Jade Dragonite3d 07:132019-12-12 01:28:00
Varsanor, Master of Darkness3d 10:022019-12-12 04:17:00
Noxious Slug3d 10:502019-12-12 05:05:00
Viserion, the Necrodragon3d 12:402019-12-12 06:55:00
Crantos, Defender of Ultimation3d 12:522019-12-12 07:07:00
Grivvek, Protector of the Brood3d 13:152019-12-12 07:30:00
Nafir, God of Desolation3d 17:122019-12-12 11:27:00
Murfax, Beast of the Caves3d 21:182019-12-12 15:33:00
Slashbrood, Devourer of the Blackness4d 08:372019-12-13 02:52:00
Dexor, Victor of Veldara5d 02:092019-12-13 20:24:00
Kro Shuk, Doomslayer6d 22:402019-12-15 16:55:00
Shaik, Servant of Arkron9d 04:052019-11-29 14:09:00
Rook, Hand of Arkron7d 08:212019-12-01 09:53:00